Estación municipal de Les Masies de Roda (Osona, Ter)

Consulta los datos en tiempo real de la estación municipal de Les Masies de Roda





Hora UTC 10:05
Temperatura 27.4 ºC
Suelo 15 cm 34.6 ºC
Humedad 55.7 %
Presión 1020.1 hPa
Pluja 0.0 mm
Velocidad viento 6.4 km/h
Dirección viento SSE
Radiación solar 96.1 W/m²

Datos diarios 2026-09-01



Hora UTC (invierno +1h; verano +2h)
Temperatura (ºC) Humedad (%) Presión (hPa) Velocidad viento (km/h) Precipitación (mm) Radiación solar (W/m²)
Hora UTC Aire Suelo 15 cm Humedad Presión Vel. Dir. Vel. Max Dir. Intent. máx 5 min. Rad. Sol.
00:05 20.0 17.7 88.3 1021.1 2.9 S 2.9 SSE 0.0 15.2
00:10 20.0 17.6 89.1 1021.1 2.2 SSE 3.9 SSE 0.0 8.7
00:15 20.2 17.7 87.6 1021.1 0.9 SSE 3.9 SSE 0.0 13.5
00:20 20.3 17.7 87.3 1021.2 0.4 SE 2.5 SE 0.0 14.7
00:25 20.0 17.7 87.6 1021.1 1.0 WNW 2.8 NW 0.0 10.3
00:30 19.8 17.5 88.8 1021.2 0.2 NNE 2.1 NNE 0.0 14.2
00:35 19.8 17.4 89.8 1020.9 0.3 NE 1.8 NE 0.0 11.7
00:40 19.8 17.4 89.6 1021.1 0.8 NE 3.5 ENE 0.0 14.8
00:45 19.8 17.4 89.2 1020.9 0.5 NE 2.5 NE 0.0 13.8
00:50 19.7 17.6 89.7 1021.0 0.0 NNE 0.0 NE 0.0 14.3
00:55 19.7 17.8 89.7 1021.0 0.0 NNE 0.0 NE 0.0 13.8
01:00 19.9 18.2 88.9 1021.0 0.0 NNE 0.0 NE 0.0 12.8
01:05 20.0 18.5 88.7 1021.1 0.3 NNE 2.1 NNE 0.0 12.7
01:10 20.0 18.7 89.0 1020.9 0.0 NNE 0.0 NNE 0.0 14.1
01:15 20.1 18.9 88.7 1021.1 0.0 NNE 0.0 NNE 0.0 13.1
01:20 20.2 19.0 88.1 1020.9 2.0 ENE 4.6 ENE 0.0 12.9
01:25 20.5 19.2 84.5 1021.1 3.6 ENE 5.0 ENE 0.0 14.9
01:30 20.8 19.4 82.8 1021.0 3.0 ENE 5.3 ENE 0.0 15.6
01:35 20.9 19.5 82.9 1021.0 1.9 NNE 3.5 NE 0.0 15.5
01:40 20.9 19.7 83.1 1021.1 1.3 NE 2.8 NNE 0.0 15.1
01:45 20.9 19.8 84.1 1020.9 2.6 NNW 3.5 NW 0.0 13.7
01:50 20.7 19.8 84.7 1021.0 3.2 NNW 4.6 NNW 0.0 16.0
01:55 20.8 19.6 84.1 1020.8 0.7 NNW 2.8 N 0.0 15.1
02:00 20.8 19.5 84.2 1021.0 0.0 NNE 0.0 NNW 0.0 14.2
02:05 20.9 19.5 84.4 1020.9 0.0 NNE 0.0 NNW 0.0 16.7
02:10 20.8 19.5 84.7 1021.0 1.6 NE 2.8 NE 0.0 16.0
02:15 20.9 19.6 84.4 1021.0 0.4 NNE 1.8 NNE 0.0 14.3
02:20 20.9 19.8 85.0 1020.9 0.6 NW 2.1 NNW 0.0 10.8
02:25 20.8 19.9 84.8 1020.9 1.5 ENE 4.2 ENE 0.0 15.3
02:30 20.9 20.0 82.9 1020.7 3.8 ENE 5.3 ENE 0.0 17.7
02:35 21.0 20.2 82.1 1020.9 1.5 ENE 3.5 NE 0.0 16.0
02:40 21.1 20.3 82.1 1020.7 3.7 ENE 5.0 ENE 0.0 14.8
02:45 21.1 20.4 82.2 1020.8 4.1 ENE 6.7 ENE 0.0 15.1
02:50 21.1 20.4 81.9 1020.6 3.9 ENE 6.0 ENE 0.0 19.4
02:55 21.2 20.5 81.3 1020.6 2.8 ENE 4.6 NE 0.0 16.7
03:00 21.2 20.5 81.3 1020.6 2.1 NE 4.6 ENE 0.0 17.5
03:05 21.2 20.6 81.7 1020.4 0.7 NNE 3.5 ENE 0.0 13.9
03:10 21.2 20.5 82.4 1020.6 0.0 NNE 0.0 0.0 14.8
03:15 21.2 20.5 83.4 1020.4 0.1 ENE 2.5 ENE 0.0 18.5
03:20 21.1 20.5 82.4 1020.5 1.3 NE 3.5 NE 0.0 18.6
03:25 21.2 20.4 82.2 1020.4 1.0 NNE 3.9 N 0.0 17.2
03:30 21.1 20.3 82.3 1020.4 2.9 N 4.2 NNW 0.0 17.6
03:35 21.1 20.2 82.6 1020.4 0.8 N 2.5 N 0.0 13.9
03:40 21.0 20.0 83.3 1020.3 0.0 NNE 0.0 N 0.0 15.6
03:45 20.9 19.8 83.9 1020.4 1.0 N 2.5 N 0.0 16.8
03:50 20.9 19.6 83.7 1020.1 1.1 N 2.5 N 0.0 18.3
03:55 20.8 19.4 84.1 1020.3 0.0 NNE 0.0 N 0.0 16.8
04:00 20.7 19.1 84.8 1020.1 0.0 NNE 0.0 N 0.0 15.9
04:05 20.5 18.9 85.4 1020.2 0.0 NNE 0.0 N 0.0 16.1
04:10 20.4 18.7 86.3 1020.2 0.3 N 1.8 N 0.0 13.3
04:15 20.4 18.7 86.1 1020.1 2.1 NE 2.8 NE 0.0 14.1
04:20 20.4 18.6 86.1 1020.1 0.1 NNE 1.8 NNE 0.0 14.9
04:25 20.3 18.5 86.5 1020.0 1.3 E 3.5 E 0.0 13.2
04:30 20.2 18.4 86.8 1020.2 0.6 ENE 2.5 ENE 0.0 14.4
04:35 20.1 18.3 87.1 1020.0 1.7 E 3.2 NNE 0.0 14.6
04:40 20.1 18.4 87.2 1020.1 1.8 N 3.2 N 0.0 14.6
04:45 20.0 18.4 87.8 1019.9 0.7 NNE 2.5 NNE 0.0 15.4
04:50 19.9 18.3 87.8 1020.0 0.3 NE 2.8 NE 0.0 12.4
04:55 19.9 18.3 88.6 1020.1 0.0 NNE 0.0 NE 0.0 13.6
05:00 19.8 18.4 89.5 1020.0 1.5 NNW 2.5 NNW 0.0 12.7
05:05 19.9 18.5 88.9 1020.2 1.2 N 2.5 NNW 0.0 13.2
05:10 20.1 18.6 88.4 1020.0 0.9 NNE 2.1 NNE 0.0 13.2
05:15 20.3 18.8 87.8 1020.1 1.8 N 2.8 N 0.0 8.9
05:20 20.3 18.9 87.6 1020.0 0.0 NNE 1.1 NNE 0.0 16.1
05:25 20.2 18.9 88.1 1020.2 0.4 NNW 2.8 NNW 0.0 15.1
05:30 20.2 18.9 88.4 1020.1 1.9 N 3.2 N 0.0 12.2
05:35 20.3 19.0 88.1 1020.2 1.9 ENE 3.5 NE 0.0 13.8
05:40 20.5 19.1 87.5 1020.2 0.7 ENE 2.8 E 0.0 12.9
05:45 20.4 19.0 87.7 1020.2 0.8 NW 2.5 NW 0.0 15.9
05:50 20.2 18.7 88.3 1020.3 0.0 NNE 0.0 NW 0.0 14.5
05:55 20.1 18.5 88.8 1020.2 0.0 NNE 0.0 NW 0.0 15.0
06:00 20.0 18.5 89.4 1020.4 2.3 NW 3.5 NW 0.0 15.1
06:05 20.0 18.5 89.7 1020.3 1.5 WNW 2.8 NW 0.0 14.7
06:10 20.1 18.6 89.4 1020.4 0.4 N 2.8 NNE 0.0 14.7
06:15 20.5 18.8 87.6 1020.3 2.1 NNE 3.5 NNE 0.0 14.8
06:20 20.6 19.0 86.6 1020.3 2.5 N 5.0 N 0.0 16.6
06:25 20.7 19.3 86.3 1020.4 1.1 NNW 2.1 NNE 0.0 16.1
06:30 20.9 19.7 85.9 1020.3 0.3 NNW 1.8 NNW 0.0 17.6
06:35 21.2 20.2 85.6 1020.5 0.0 NNE 0.0 NNW 0.0 17.3
06:40 21.5 20.7 83.7 1020.4 1.2 NNE 3.9 NNE 0.0 21.1
06:45 21.7 21.3 82.3 1020.6 0.9 NNE 2.5 NNE 0.0 22.1
06:50 21.8 21.8 82.4 1020.5 0.0 E 1.4 E 0.0 18.9
06:55 22.2 22.4 80.7 1020.5 0.2 ENE 3.2 ENE 0.0 23.7
07:00 22.8 23.0 77.8 1020.6 2.0 ENE 3.5 ENE 0.0 25.5
07:05 22.6 23.4 78.2 1020.5 0.9 E 3.5 E 0.0 24.2
07:10 23.0 23.8 77.4 1020.7 1.6 SSE 4.6 S 0.0 31.3
07:15 23.1 24.3 76.4 1020.5 1.6 ESE 5.7 ESE 0.0 35.2
07:20 23.2 24.6 76.1 1020.7 2.3 S 3.9 SSE 0.0 37.2
07:25 23.5 25.1 75.8 1020.6 0.9 SSE 4.6 SSE 0.0 29.9
07:30 23.8 25.6 74.2 1020.7 4.0 S 8.5 S 0.0 42.0
07:35 23.8 25.9 74.6 1020.7 4.6 S 7.4 S 0.0 41.2
07:40 23.9 26.3 73.8 1020.7 4.0 SSW 8.5 SSW 0.0 41.2
07:45 24.0 26.7 74.0 1020.8 4.2 SSW 7.1 S 0.0 40.8
07:50 24.2 26.9 72.1 1020.5 4.4 S 8.5 S 0.0 46.0
07:55 24.3 27.0 71.2 1020.6 2.6 NE 7.8 NNE 0.0 36.5
08:00 24.1 27.0 71.0 1020.5 3.9 NNE 7.8 NE 0.0 43.5
08:05 23.9 27.1 72.2 1020.4 2.9 SE 7.4 ENE 0.0 58.3
08:10 24.3 27.6 70.8 1020.5 4.3 NNE 7.1 NE 0.0 54.3
08:15 24.3 28.0 70.1 1020.4 4.3 ENE 7.4 ESE 0.0 57.0
08:20 24.7 28.5 68.4 1020.6 3.0 E 7.8 ESE 0.0 65.7
08:25 24.9 29.1 68.3 1020.5 1.8 S 3.9 SSE 0.0 55.8
08:30 25.4 29.8 66.0 1020.4 2.7 E 6.7 ENE 0.0 60.1
08:35 25.2 30.1 66.8 1020.6 5.0 NNW 10.6 WNW 0.0 62.8
08:40 25.1 30.2 66.6 1020.5 5.1 NW 10.3 NW 0.0 72.3
08:45 25.3 30.2 65.1 1020.4 5.6 NW 10.3 NNW 0.0 72.6
08:50 25.1 30.3 64.3 1020.5 6.2 NNW 9.2 NNW 0.0 69.7
08:55 25.2 30.2 66.2 1020.5 2.3 WSW 5.0 NW 0.0 79.9
09:00 26.3 31.0 63.0 1020.4 2.9 NW 8.5 W 0.0 69.5
09:05 25.7 31.2 62.8 1020.5 5.5 N 8.8 NNW 0.0 61.3
09:10 25.7 31.1 63.6 1020.5 2.7 N 7.4 NNE 0.0 60.2
09:15 26.4 31.5 61.9 1020.3 5.8 WSW 8.1 SW 0.0 59.8
09:20 26.6 32.3 60.2 1020.4 4.1 W 7.4 WSW 0.0 40.9
09:25 26.4 32.8 58.4 1020.4 2.0 NNE 5.3 NNE 0.0 67.6
09:30 25.9 32.9 60.0 1020.2 3.5 E 6.4 E 0.0 68.2
09:35 25.8 32.7 61.6 1020.2 4.2 NW 6.7 W 0.0 70.5
09:40 25.9 32.2 60.9 1020.4 3.3 NNW 7.8 NW 0.0 93.2
09:45 26.2 32.2 61.1 1020.3 3.8 WNW 6.0 N 0.0 94.3
09:50 27.2 33.0 59.2 1020.2 5.7 WSW 11.0 SSW 0.0 63.0
09:55 27.3 33.8 57.3 1020.3 4.2 SSW 7.1 S 0.0 95.9
10:00 27.6 34.4 56.3 1020.3 3.5 S 9.9 SSW 0.0 103.7
10:05 27.4 34.6 55.7 1020.1 6.4 SSE 11.0 SE 0.0 96.1
Máxima 27.6 34.6 89.8 1021.2 6.4 SSE 11.0 SE 0.0 103.7
Mínima 19.7 17.4 55.7 1019.9
Total 0.0